Find Starlink 35202

NORAD ID: 65647 Int'l Des: 2025-210 Owner: SPXS Country: US Constellation: starlink operational
LEOCIRCULAR

Live Position

Loading 3D Globe...

About Starlink 35202

Description loading...

Upcoming Passes

Passes for default location (London). Set your location on the main map for personalized predictions.

Altitude History

Loading altitude history...

Two-Line Element Set

1 65647U 25210AB 26112.28692996 .00006748 00000-0 23979-3 0 9999
2 65647 53.1584 104.7366 0001311 85.5319 274.5832 15.30195483 34401
Epoch: Apr 22, 2026 • Age: 11 hours

Current Status

Altitude 480.7 km
Velocity 7.63 km/s
Sub-Earth Point 52.56°N, 55.21°E
Launch Date Sep 18, 2025
Age 0.5 years
Type internet

Technical Details

Classification Payload
Mass 575.00 kg
Dry Mass 530.00 kg
Total Mass 575.00 kg
Length 0.30 m
Diameter 4.10 m
Span 29.00 m
Shape Box + pan
Manufacturer SPXS
Bus Type Starlink V2MO
Phase Status In Orbit
Owner/State SPXS/US

Most Searched